Seldovia, AK

10:55 AM AKDT on April 29, 2017 (GMT -0800)
Seldovia

Weather History for PASO - June, 2013

Change the Weather History Date:

Sunday, June 30, 2013

  Actual Average (PAHO) Record (PAHO)
Temperature  
Mean Temperature 52 °F -  
Max Temperature 57 °F 59 °F 72 °F (1953)
Min Temperature 46 °F 45 °F 36 °F (1959)
Degree Days  
Heating Degree Days 14    
Growing Degree Days 2 (Base 50)    
Moisture  
Dew Point 47 °F    
Average Humidity 84    
Maximum Humidity 93    
Minimum Humidity 74    
Precipitation  
Precipitation 0.21 in - - ()
Sea Level Pressure  
Sea Level Pressure 29.98 in    
Wind  
Wind Speed 2 mph (SSE)    
Max Wind Speed 14 mph    
Max Gust Speed 24 mph    
Visibility 9 miles    
Events Rain    
Averages and records for this station are not official NWS values.
T = Trace of Precipitation, MM = Missing Value Source: NWS Daily Summary

Daily Weather History Graph

Daily Weather History Graph

Search for Another Location

Airport or City:

Trip Planner

Search our weather history database for the weather conditions in past years. The results will help you decide how hot, cold, wet, or windy it might be!

Date:

Astronomy

Jun. 30, 2013 Rise Set
Actual Time 4:54 AM AKDT 11:26 PM AKDT
Civil Twilight 3:25 AM AKDT 12:54 AM AKDT
Nautical Twilight Sun does not set Sun does not set
Astronomical Twilight Sun does not set Sun does not set
Moon 1:20 AM AKDT (6/30) 3:39 PM AKDT (6/30)
Length of Visible Light 21h 29m
Length of Day
18h 31m
Last Quarter, 44% of the Moon is Illuminated
Jun 30
Last Quarter
Jul 7
New
Jul 15
First Quarter
Jul 22
Full
Jul 29
Last Quarter

Hourly Weather History & Observations

Time (AKDT) Temp. Dew Point Humidity Pressure Visibility Wind Dir Wind Speed Gust Speed Precip Events Conditions
12:53 AM 48.0 °F 45.0 °F 89% 30.06 in 10.0 mi Calm Calm - N/A   Partly Cloudy
1:53 AM 46.9 °F 45.0 °F 93% 30.06 in 10.0 mi Calm Calm - N/A   Clear
2:53 AM 46.0 °F 44.1 °F 93% 30.06 in 10.0 mi Calm Calm - N/A   Clear
3:53 AM 46.0 °F 44.1 °F 93% 30.06 in 10.0 mi Calm Calm - N/A   Scattered Clouds
4:53 AM 46.9 °F 45.0 °F 93% 30.05 in 10.0 mi Calm Calm - N/A   Overcast
5:53 AM 46.9 °F 45.0 °F 93% 30.04 in 10.0 mi Calm Calm - N/A   Partly Cloudy
6:53 AM 48.9 °F 46.9 °F 93% 30.04 in 10.0 mi Calm Calm - N/A   Clear
7:53 AM 52.0 °F 48.9 °F 89% 30.03 in 10.0 mi Calm Calm - N/A   Clear
8:53 AM 53.1 °F 48.9 °F 86% 30.02 in 10.0 mi Calm Calm - N/A   Clear
9:53 AM 57.0 °F 48.9 °F 74% 30.02 in 10.0 mi Variable 3.5 mph - N/A   Partly Cloudy
10:53 AM 53.1 °F 46.9 °F 80% 30.03 in 10.0 mi Variable 3.5 mph - N/A   Overcast
11:46 AM 55.4 °F 48.2 °F 77% 30.00 in 10.0 mi Calm Calm - N/A   Overcast
11:53 AM 55.9 °F 48.0 °F 75% 30.00 in 10.0 mi Calm Calm - N/A   Overcast
12:53 PM 55.0 °F 48.0 °F 77% 29.98 in 10.0 mi Variable 4.6 mph - N/A   Scattered Clouds
1:53 PM 55.0 °F 48.9 °F 80% 29.97 in 10.0 mi North 5.8 mph - N/A   Mostly Cloudy
2:53 PM 51.1 °F 46.9 °F 86% 29.98 in 10.0 mi Variable 4.6 mph - N/A   Overcast
3:01 PM 51.8 °F 46.4 °F 82% 29.98 in 10.0 mi Variable 3.5 mph - N/A   Overcast
3:30 PM 53.6 °F 48.2 °F 82% 29.98 in 10.0 mi Calm Calm - N/A   Overcast
3:53 PM 55.0 °F 46.9 °F 74% 29.98 in 10.0 mi Variable 4.6 mph 16.1 mph N/A   Overcast
4:53 PM 54.0 °F 46.9 °F 77% 29.97 in 10.0 mi Calm Calm - N/A   Overcast
5:53 PM 53.1 °F 45.0 °F 74% 29.95 in 10.0 mi SSE 11.5 mph 21.9 mph N/A   Overcast
6:53 PM 53.1 °F 45.0 °F 74% 29.93 in 10.0 mi South 13.8 mph 24.2 mph N/A   Overcast
7:53 PM 52.0 °F 45.0 °F 77% 29.92 in 10.0 mi South 10.4 mph 19.6 mph N/A   Overcast
8:53 PM 52.0 °F 45.0 °F 77% 29.90 in 10.0 mi South 8.1 mph - 0.00 in Rain Light Rain
9:01 PM 51.8 °F 46.4 °F 82% 29.90 in 10.0 mi South 8.1 mph - 0.00 in Rain Light Rain
9:53 PM 50.0 °F 46.9 °F 89% 29.88 in 6.0 mi Variable 4.6 mph - 0.01 in Rain Light Rain
10:27 PM 50.0 °F 46.4 °F 87% 29.87 in 7.0 mi Calm Calm - 0.03 in Rain Light Rain
10:53 PM 50.0 °F 46.9 °F 89% 29.86 in 5.0 mi Calm Calm - 0.06 in Rain Rain
11:53 PM 48.9 °F 46.9 °F 93% 29.85 in 4.0 mi NNE 3.5 mph - 0.14 in Rain Rain